Dodge City, KS

1:00 PM CDT on June 25, 2017 (GMT -0500)
Dodge City Regional

Weather History for KDDC - December, 2012

Change the Weather History Date:

Wednesday, December 12, 2012

  Actual Average Record
Temperature  
Mean Temperature 34 °F -  
Max Temperature 46 °F 47 °F 72 °F (1889)
Min Temperature 21 °F 23 °F -10 °F (1932)
Degree Days  
Heating Degree Days 32    
Moisture  
Dew Point 11 °F    
Average Humidity 35    
Maximum Humidity 60    
Minimum Humidity 9    
Precipitation  
Precipitation 0.00 in - - ()
Sea Level Pressure  
Sea Level Pressure 29.99 in    
Wind  
Wind Speed 13 mph (South)    
Max Wind Speed 23 mph    
Max Gust Speed 32 mph    
Visibility 10 miles    
Events      
Averages and records for this station are not official NWS values.
T = Trace of Precipitation, MM = Missing Value Source: NWS Daily Summary

Daily Weather History Graph

Daily Weather History Graph

Search for Another Location

Airport or City:

Trip Planner

Search our weather history database for the weather conditions in past years. The results will help you decide how hot, cold, wet, or windy it might be!

Date:

Astronomy

Dec. 12, 2012 Rise Set
Actual Time 7:46 AM CST 5:21 PM CST
Civil Twilight 7:16 AM CST 5:50 PM CST
Nautical Twilight 6:44 AM CST 6:23 PM CST
Astronomical Twilight 6:12 AM CST 6:55 PM CST
Moon 6:52 AM CST (12/12) 5:00 PM CST (12/12)
Length of Visible Light 10h 33m
Length of Day
9h 35m
Waning Crescent, 1% of the Moon is Illuminated
Dec 12
Waning Crescent
Dec 13
New
Dec 19
First Quarter
Dec 28
Full
Jan 4
Last Quarter

Hourly Weather History & Observations

Time (CST) Temp. Windchill Dew Point Humidity Pressure Visibility Wind Dir Wind Speed Gust Speed Precip Events Conditions
12:52 AM 28.0 °F 19.3 °F 7.0 °F 41% 30.04 in 10.0 mi SSW 9.2 mph - N/A   Clear
1:52 AM 26.1 °F 16.8 °F 7.0 °F 44% 30.03 in 10.0 mi South 9.2 mph - N/A   Clear
2:52 AM 26.1 °F 16.8 °F 8.1 °F 47% 30.04 in 10.0 mi South 9.2 mph - N/A   Clear
3:52 AM 24.1 °F 15.2 °F 9.0 °F 53% 30.02 in 10.0 mi South 8.1 mph - N/A   Clear
4:52 AM 21.9 °F 11.0 °F 8.1 °F 55% 30.02 in 10.0 mi South 10.4 mph - N/A   Clear
5:52 AM 21.0 °F 11.4 °F 9.0 °F 60% 30.03 in 10.0 mi South 8.1 mph - N/A   Clear
6:52 AM 23.0 °F 11.7 °F 10.0 °F 58% 30.05 in 10.0 mi SSW 11.5 mph - N/A   Clear
7:52 AM 23.0 °F 10.6 °F 10.9 °F 60% 30.04 in 10.0 mi South 13.8 mph - N/A   Clear
8:52 AM 27.0 °F 15.2 °F 12.0 °F 53% 30.04 in 10.0 mi South 15.0 mph - N/A   Clear
9:52 AM 36.0 °F 24.4 °F 12.0 °F 37% 30.02 in 10.0 mi South 23.0 mph 28.8 mph N/A   Clear
10:52 AM 41.0 °F 31.4 °F 12.0 °F 31% 30.03 in 10.0 mi SSW 21.9 mph 32.2 mph N/A   Clear
11:52 AM 44.1 °F 36.2 °F 12.0 °F 27% 30.00 in 10.0 mi South 18.4 mph - N/A   Clear
12:52 PM 48.9 °F - 12.0 °F 23% 29.96 in 10.0 mi South 19.6 mph - N/A   Clear
1:52 PM 51.1 °F - 12.0 °F 21% 29.94 in 10.0 mi South 20.7 mph - N/A   Clear
2:52 PM 53.1 °F - 12.0 °F 20% 29.93 in 10.0 mi SSW 20.7 mph - N/A   Clear
3:52 PM 53.1 °F - 10.9 °F 19% 29.92 in 10.0 mi South 19.6 mph 26.5 mph N/A   Clear
4:52 PM 51.1 °F - 12.0 °F 21% 29.93 in 10.0 mi South 15.0 mph - N/A   Clear
5:52 PM 46.9 °F - 12.0 °F 24% 29.95 in 10.0 mi South 16.1 mph - N/A   Clear
6:52 PM 45.0 °F 37.6 °F 12.9 °F 27% 29.96 in 10.0 mi South 17.3 mph - N/A   Clear
7:52 PM 44.1 °F 36.2 °F 14.0 °F 30% 29.97 in 10.0 mi SSE 18.4 mph - N/A   Clear
8:52 PM 42.1 °F 34.2 °F 12.9 °F 31% 29.98 in 10.0 mi South 16.1 mph - N/A   Clear
9:52 PM 37.0 °F 28.9 °F 12.9 °F 37% 29.97 in 10.0 mi SSE 12.7 mph - N/A   Clear
10:52 PM 37.9 °F 28.9 °F 14.0 °F 38% 29.95 in 10.0 mi South 16.1 mph - N/A   Clear
11:52 PM 39.0 °F 31.0 °F 15.1 °F 38% 29.95 in 10.0 mi South 13.8 mph - N/A   Clear